User: anonymous   Login
Location: Cactus School
(34.5700°N, 118.0931°W)
Time: 01:51:21
(UTC-07:00)
Language:

Hubble Space Telescope - Orbit

View from above orbital plane
View from above orbital plane
View from above satellite
View from above satellite

Ground track
Ground track

The orbit data is extracted from the following two-line orbital elements,

1 20580U 90037B   18231.59916564 +.00000422 +00000-0 +14822-4 0  9993
2 20580 028.4700 055.9054 0002855 101.8653 306.1428 15.09078100354973
Epoch (UTC): 19 August 2018 14:22:47
Eccentricity: 0.0002855
inclination: 28.4700°
perigee height: 537 km
apogee height: 541 km
right ascension of ascending node: 55.9054°
argument of perigee: 101.8653°
revolutions per day: 15.09078100
mean anomaly at epoch: 306.1428°
orbit number at epoch: 35497

The dashed part of the orbit path shows where the satellite is in the earth's shadow,  

DLR